Wetterdaten: Samstag, 07.11.2015
Datum Zeit Auen-Temp. Temp gefhlt Luftfeuchte Luftdruck Regen Wind Richtung Richtung Taupunkt Windben
07.11.2015 00:00 7,4 C 7,4 C 83 % 1025,8 hPa 0,0 mm 0,0 km/h (0 Bft) O 90 4,7 C 0,0 km/h (0 Bft)
07.11.2015 00:05 7,3 C 7,2 C 82 % 1025,8 hPa 0,0 mm 0,3 km/h (0 Bft) S-SO 157 4,4 C 4,1 km/h (1 Bft)
07.11.2015 00:10 6,8 C 6,8 C 82 % 1025,8 hPa 0,0 mm 0,8 km/h (0 Bft) SO 135 3,9 C 4,7 km/h (1 Bft)
07.11.2015 00:15 6,6 C 6,6 C 82 % 1025,8 hPa 0,0 mm 1,0 km/h (0 Bft) SO 135 3,8 C 3,6 km/h (1 Bft)
07.11.2015 00:20 6,7 C 6,6 C 83 % 1025,8 hPa 0,0 mm 1,0 km/h (0 Bft) N-NW 337 4,0 C 6,0 km/h (2 Bft)
07.11.2015 00:25 6,6 C 6,5 C 83 % 1025,8 hPa 0,0 mm 0,8 km/h (0 Bft) O 90 3,9 C 0,0 km/h (0 Bft)
07.11.2015 00:30 6,3 C 6,2 C 83 % 1025,8 hPa 0,0 mm 0,3 km/h (0 Bft) N-NO 22 3,6 C 0,0 km/h (0 Bft)
07.11.2015 00:35 6,2 C 6,1 C 83 % 1025,8 hPa 0,0 mm 0,0 km/h (0 Bft) N-NO 22 3,5 C 0,0 km/h (0 Bft)
07.11.2015 00:40 6,0 C 5,9 C 83 % 1025,8 hPa 0,0 mm 0,0 km/h (0 Bft) N-NO 22 3,3 C 0,0 km/h (0 Bft)
07.11.2015 00:45 6,3 C 6,0 C 84 % 1025,8 hPa 0,0 mm 0,0 km/h (0 Bft) NO 45 3,8 C 0,0 km/h (0 Bft)
07.11.2015 00:50 6,0 C 5,8 C 83 % 1025,9 hPa 0,0 mm 0,0 km/h (0 Bft) SW 225 3,3 C 0,0 km/h (0 Bft)
07.11.2015 00:55 5,5 C 5,5 C 84 % 1025,9 hPa 0,0 mm 0,0 km/h (0 Bft) NW 315 3,0 C 0,0 km/h (0 Bft)
07.11.2015 01:00 5,3 C 5,3 C 84 % 1025,9 hPa 0,0 mm 0,0 km/h (0 Bft) NW 315 2,8 C 0,0 km/h (0 Bft)
07.11.2015 01:05 5,1 C 5,1 C 84 % 1025,9 hPa 0,0 mm 0,0 km/h (0 Bft) N 360 2,6 C 0,0 km/h (0 Bft)
07.11.2015 01:10 5,3 C 5,1 C 85 % 1025,9 hPa 0,0 mm 0,0 km/h (0 Bft) N-NW 337 3,0 C 0,0 km/h (0 Bft)
07.11.2015 01:15 5,4 C 5,2 C 85 % 1025,9 hPa 0,0 mm 0,0 km/h (0 Bft) N-NO 22 3,1 C 0,0 km/h (0 Bft)
07.11.2015 01:20 5,3 C 5,1 C 86 % 1025,9 hPa 0,0 mm 0,0 km/h (0 Bft) N-NO 22 3,2 C 0,0 km/h (0 Bft)
07.11.2015 01:25 5,2 C 5,1 C 86 % 1025,9 hPa 0,0 mm 0,0 km/h (0 Bft) O-SO 112 3,1 C 0,0 km/h (0 Bft)
07.11.2015 01:30 4,9 C 4,9 C 86 % 1025,6 hPa 0,0 mm 0,0 km/h (0 Bft) N-NO 22 2,8 C 0,0 km/h (0 Bft)
07.11.2015 01:35 5,6 C 5,3 C 87 % 1025,6 hPa 0,0 mm 0,0 km/h (0 Bft) N-NO 22 3,6 C 0,0 km/h (0 Bft)
07.11.2015 01:40 5,2 C 5,1 C 87 % 1025,6 hPa 0,0 mm 0,0 km/h (0 Bft) N-NO 22 3,2 C 0,0 km/h (0 Bft)
07.11.2015 01:45 5,1 C 5,0 C 87 % 1025,6 hPa 0,0 mm 0,3 km/h (0 Bft) NW 315 3,1 C 2,8 km/h (1 Bft)
07.11.2015 01:50 5,0 C 4,9 C 87 % 1025,7 hPa 0,0 mm 0,3 km/h (0 Bft) NW 315 3,0 C 0,0 km/h (0 Bft)
07.11.2015 01:55 5,0 C 4,9 C 87 % 1025,7 hPa 0,0 mm 0,3 km/h (0 Bft) SO 135 3,0 C 0,0 km/h (0 Bft)
07.11.2015 02:00 5,1 C 4,9 C 87 % 1025,7 hPa 0,0 mm 0,0 km/h (0 Bft) W-NW 292 3,1 C 0,0 km/h (0 Bft)
07.11.2015 02:05 5,0 C 4,9 C 87 % 1025,7 hPa 0,0 mm 0,0 km/h (0 Bft) NO 45 3,0 C 0,0 km/h (0 Bft)
07.11.2015 02:10 5,5 C 5,2 C 88 % 1025,8 hPa 0,0 mm 0,0 km/h (0 Bft) NO 45 3,7 C 0,0 km/h (0 Bft)
07.11.2015 02:15 5,4 C 5,2 C 88 % 1025,8 hPa 0,0 mm 0,3 km/h (0 Bft) W-SW 247 3,6 C 0,0 km/h (0 Bft)
07.11.2015 02:19 5,5 C 5,2 C 88 % 1025,8 hPa 0,0 mm 0,0 km/h (0 Bft) S 180 3,7 C 0,0 km/h (0 Bft)
07.11.2015 02:21 5,5 C 5,2 C 88 % 1025,8 hPa 0,0 mm 0,0 km/h (0 Bft) S 180 3,7 C 0,0 km/h (0 Bft)
07.11.2015 02:25 6,6 C 6,2 C 88 % 1025,8 hPa 0,0 mm 0,5 km/h (0 Bft) S 180 4,8 C 0,0 km/h (0 Bft)
07.11.2015 02:30 6,6 C 6,2 C 88 % 1025,8 hPa 0,0 mm 0,5 km/h (0 Bft) S 180 4,8 C 0,0 km/h (0 Bft)
07.11.2015 02:35 6,5 C 6,1 C 88 % 1025,8 hPa 0,0 mm 0,5 km/h (0 Bft) S 180 4,7 C 0,0 km/h (0 Bft)
07.11.2015 02:40 6,2 C 5,9 C 88 % 1025,8 hPa 0,0 mm 0,5 km/h (0 Bft) S 180 4,4 C 0,0 km/h (0 Bft)
07.11.2015 02:45 5,9 C 5,7 C 88 % 1025,8 hPa 0,0 mm 0,0 km/h (0 Bft) S 180 4,1 C 0,0 km/h (0 Bft)
07.11.2015 02:50 5,8 C 5,6 C 87 % 1025,4 hPa 0,0 mm 0,0 km/h (0 Bft) S 180 3,8 C 0,0 km/h (0 Bft)
07.11.2015 02:55 5,8 C 5,6 C 87 % 1025,4 hPa 0,0 mm 0,0 km/h (0 Bft) S 180 3,8 C 0,0 km/h (0 Bft)
07.11.2015 03:00 5,6 C 5,5 C 87 % 1025,4 hPa 0,0 mm 0,0 km/h (0 Bft) S 180 3,6 C 0,0 km/h (0 Bft)
07.11.2015 03:05 6,1 C 5,8 C 87 % 1025,4 hPa 0,0 mm 0,0 km/h (0 Bft) S 180 4,1 C 0,0 km/h (0 Bft)
07.11.2015 03:10 6,3 C 6,0 C 87 % 1025,6 hPa 0,0 mm 0,0 km/h (0 Bft) S 180 4,3 C 0,0 km/h (0 Bft)
07.11.2015 03:15 6,2 C 5,9 C 87 % 1025,6 hPa 0,0 mm 0,0 km/h (0 Bft) S 180 4,2 C 0,0 km/h (0 Bft)
07.11.2015 03:20 5,9 C 5,7 C 87 % 1025,6 hPa 0,0 mm 0,0 km/h (0 Bft) S 180 3,9 C 0,0 km/h (0 Bft)
07.11.2015 03:25 5,6 C 5,5 C 87 % 1025,6 hPa 0,0 mm 0,0 km/h (0 Bft) S 180 3,6 C 0,0 km/h (0 Bft)
07.11.2015 03:30 5,6 C 5,5 C 87 % 1025,4 hPa 0,0 mm 0,0 km/h (0 Bft) S 180 3,6 C 0,0 km/h (0 Bft)
07.11.2015 03:35 5,9 C 5,7 C 87 % 1025,4 hPa 0,0 mm 0,0 km/h (0 Bft) S 180 3,9 C 0,0 km/h (0 Bft)
07.11.2015 03:40 6,6 C 6,3 C 82 % 1025,4 hPa 0,0 mm 0,0 km/h (0 Bft) S 180 3,8 C 0,0 km/h (0 Bft)
07.11.2015 03:45 6,4 C 6,0 C 87 % 1025,4 hPa 0,0 mm 0,0 km/h (0 Bft) S 180 4,4 C 0,0 km/h (0 Bft)
07.11.2015 03:50 6,6 C 6,2 C 87 % 1025,5 hPa 0,0 mm 0,0 km/h (0 Bft) S 180 4,6 C 0,0 km/h (0 Bft)
07.11.2015 03:55 7,1 C 6,7 C 82 % 1025,5 hPa 0,0 mm 0,0 km/h (0 Bft) S 180 4,2 C 0,0 km/h (0 Bft)
07.11.2015 04:00 7,6 C 7,0 C 82 % 1025,5 hPa 0,0 mm 0,0 km/h (0 Bft) S 180 4,7 C 0,0 km/h (0 Bft)
07.11.2015 04:05 8,0 C 7,2 C 82 % 1025,5 hPa 0,0 mm 0,0 km/h (0 Bft) S 180 5,1 C 0,0 km/h (0 Bft)
07.11.2015 04:10 8,4 C 7,4 C 81 % 1025,4 hPa 0,0 mm 0,0 km/h (0 Bft) S 180 5,3 C 0,0 km/h (0 Bft)
07.11.2015 04:15 8,6 C 7,5 C 84 % 1025,4 hPa 0,0 mm 0,0 km/h (0 Bft) S 180 6,1 C 0,0 km/h (0 Bft)
07.11.2015 04:20 8,7 C 7,6 C 83 % 1025,4 hPa 0,0 mm 0,0 km/h (0 Bft) S 180 6,0 C 0,0 km/h (0 Bft)
07.11.2015 04:25 8,8 C 7,6 C 82 % 1025,4 hPa 0,0 mm 0,0 km/h (0 Bft) S 180 5,9 C 0,0 km/h (0 Bft)
07.11.2015 04:30 8,5 C 7,4 C 81 % 1025,2 hPa 0,0 mm 0,0 km/h (0 Bft) S 180 5,4 C 0,0 km/h (0 Bft)
07.11.2015 04:35 8,7 C 7,6 C 81 % 1025,2 hPa 0,0 mm 0,0 km/h (0 Bft) S 180 5,6 C 0,0 km/h (0 Bft)
07.11.2015 04:40 8,7 C 7,6 C 81 % 1025,2 hPa 0,0 mm 0,0 km/h (0 Bft) S 180 5,6 C 0,0 km/h (0 Bft)
07.11.2015 04:45 8,3 C 7,3 C 80 % 1025,2 hPa 0,0 mm 0,0 km/h (0 Bft) S 180 5,1 C 0,0 km/h (0 Bft)
07.11.2015 04:50 8,6 C 7,6 C 78 % 1025,2 hPa 0,0 mm 0,0 km/h (0 Bft) S 180 5,0 C 0,0 km/h (0 Bft)
07.11.2015 04:55 9,0 C 7,8 C 78 % 1025,2 hPa 0,0 mm 0,0 km/h (0 Bft) S 180 5,4 C 0,0 km/h (0 Bft)
07.11.2015 05:00 8,6 C 7,5 C 79 % 1025,2 hPa 0,0 mm 0,0 km/h (0 Bft) S 180 5,2 C 0,0 km/h (0 Bft)
07.11.2015 05:05 8,4 C 7,4 C 79 % 1025,2 hPa 0,0 mm 0,0 km/h (0 Bft) S 180 5,0 C 0,0 km/h (0 Bft)
07.11.2015 05:10 8,4 C 7,4 C 79 % 1025,4 hPa 0,0 mm 0,0 km/h (0 Bft) S 180 5,0 C 0,0 km/h (0 Bft)
07.11.2015 05:15 8,3 C 7,3 C 79 % 1025,4 hPa 0,0 mm 0,0 km/h (0 Bft) S 180 4,9 C 0,0 km/h (0 Bft)
07.11.2015 05:20 8,3 C 7,3 C 80 % 1025,4 hPa 0,0 mm 0,0 km/h (0 Bft) S 180 5,1 C 0,0 km/h (0 Bft)
07.11.2015 05:25 8,2 C 7,2 C 80 % 1025,4 hPa 0,0 mm 0,0 km/h (0 Bft) S 180 5,0 C 0,0 km/h (0 Bft)
07.11.2015 05:30 8,2 C 7,2 C 80 % 1025,3 hPa 0,0 mm 0,0 km/h (0 Bft) S 180 5,0 C 0,0 km/h (0 Bft)
07.11.2015 05:35 8,1 C 7,2 C 80 % 1025,3 hPa 0,0 mm 0,0 km/h (0 Bft) S 180 4,9 C 0,0 km/h (0 Bft)
07.11.2015 05:40 8,2 C 7,4 C 78 % 1025,3 hPa 0,0 mm 0,0 km/h (0 Bft) S 180 4,6 C 0,0 km/h (0 Bft)
07.11.2015 05:45 8,3 C 7,4 C 78 % 1025,3 hPa 0,0 mm 0,0 km/h (0 Bft) S 180 4,7 C 0,0 km/h (0 Bft)
07.11.2015 05:50 8,3 C 7,4 C 78 % 1025,8 hPa 0,0 mm 0,0 km/h (0 Bft) S 180 4,7 C 0,0 km/h (0 Bft)
07.11.2015 05:55 8,3 C 7,3 C 80 % 1025,8 hPa 0,0 mm 0,0 km/h (0 Bft) S 180 5,1 C 0,0 km/h (0 Bft)
07.11.2015 06:00 8,3 C 7,4 C 78 % 1025,8 hPa 0,0 mm 0,0 km/h (0 Bft) S 180 4,7 C 0,0 km/h (0 Bft)
07.11.2015 06:05 8,3 C 7,4 C 79 % 1025,8 hPa 0,0 mm 0,0 km/h (0 Bft) S 180 4,9 C 0,0 km/h (0 Bft)
07.11.2015 06:11 9,3 C 8,3 C 79 % 1025,6 hPa 0,0 mm 0,0 km/h (0 Bft) S 180 5,8 C 0,0 km/h (0 Bft)
07.11.2015 06:15 10,3 C 8,6 C 78 % 1025,6 hPa 0,0 mm 0,0 km/h (0 Bft) S 180 6,6 C 0,0 km/h (0 Bft)
07.11.2015 06:20 10,5 C 8,8 C 77 % 1025,6 hPa 0,0 mm 0,0 km/h (0 Bft) S 180 6,6 C 0,0 km/h (0 Bft)
07.11.2015 06:25 10,4 C 8,7 C 76 % 1025,6 hPa 0,0 mm 0,0 km/h (0 Bft) S 180 6,4 C 0,0 km/h (0 Bft)
07.11.2015 06:30 9,9 C 8,4 C 76 % 1025,6 hPa 0,0 mm 0,0 km/h (0 Bft) S 180 5,9 C 0,0 km/h (0 Bft)
07.11.2015 06:35 10,5 C 8,8 C 75 % 1025,6 hPa 0,0 mm 0,0 km/h (0 Bft) S 180 6,3 C 0,0 km/h (0 Bft)
07.11.2015 06:40 10,1 C 8,5 C 74 % 1025,6 hPa 0,0 mm 0,0 km/h (0 Bft) S 180 5,7 C 0,0 km/h (0 Bft)
07.11.2015 06:45 9,2 C 7,9 C 75 % 1025,6 hPa 0,0 mm 0,0 km/h (0 Bft) S 180 5,0 C 0,0 km/h (0 Bft)
07.11.2015 06:50 9,1 C 7,8 C 75 % 1025,9 hPa 0,0 mm 0,0 km/h (0 Bft) S 180 4,9 C 0,0 km/h (0 Bft)
07.11.2015 06:56 9,0 C 7,8 C 75 % 1025,9 hPa 0,0 mm 0,0 km/h (0 Bft) S 180 4,8 C 0,0 km/h (0 Bft)
07.11.2015 07:00 9,0 C 7,8 C 76 % 1025,9 hPa 0,0 mm 0,0 km/h (0 Bft) S 180 5,0 C 0,0 km/h (0 Bft)
07.11.2015 07:05 9,3 C 8,0 C 77 % 1025,9 hPa 0,0 mm 0,0 km/h (0 Bft) S 180 5,5 C 0,0 km/h (0 Bft)
07.11.2015 07:10 9,3 C 8,0 C 77 % 1026,0 hPa 0,0 mm 0,0 km/h (0 Bft) S 180 5,5 C 0,0 km/h (0 Bft)
07.11.2015 07:15 9,0 C 7,8 C 76 % 1026,0 hPa 0,0 mm 0,0 km/h (0 Bft) S 180 5,0 C 0,0 km/h (0 Bft)
07.11.2015 07:20 9,0 C 7,8 C 77 % 1026,0 hPa 0,0 mm 0,0 km/h (0 Bft) S 180 5,2 C 0,0 km/h (0 Bft)
07.11.2015 07:25 9,0 C 7,8 C 77 % 1026,0 hPa 0,0 mm 0,0 km/h (0 Bft) S 180 5,2 C 0,0 km/h (0 Bft)
07.11.2015 07:30 9,0 C 7,8 C 76 % 1026,4 hPa 0,0 mm 0,0 km/h (0 Bft) S 180 5,0 C 0,0 km/h (0 Bft)
07.11.2015 07:35 9,1 C 7,9 C 76 % 1026,4 hPa 0,0 mm 0,0 km/h (0 Bft) S 180 5,1 C 0,0 km/h (0 Bft)
07.11.2015 07:40 9,1 C 7,9 C 76 % 1026,4 hPa 0,0 mm 0,0 km/h (0 Bft) S 180 5,1 C 0,0 km/h (0 Bft)
07.11.2015 07:45 9,6 C 8,4 C 77 % 1026,4 hPa 0,0 mm 0,0 km/h (0 Bft) S 180 5,8 C 0,0 km/h (0 Bft)
07.11.2015 07:50 10,1 C 8,6 C 77 % 1026,7 hPa 0,0 mm 0,0 km/h (0 Bft) S 180 6,3 C 0,0 km/h (0 Bft)
07.11.2015 07:55 10,4 C 8,7 C 78 % 1026,7 hPa 0,0 mm 0,0 km/h (0 Bft) S 180 6,7 C 0,0 km/h (0 Bft)
07.11.2015 08:00 9,9 C 8,4 C 77 % 1026,7 hPa 0,0 mm 0,0 km/h (0 Bft) S 180 6,1 C 0,0 km/h (0 Bft)
07.11.2015 08:05 10,0 C 8,4 C 77 % 1026,7 hPa 0,0 mm 0,0 km/h (0 Bft) S 180 6,2 C 0,0 km/h (0 Bft)
07.11.2015 08:10 10,1 C 8,6 C 76 % 1026,9 hPa 0,0 mm 0,0 km/h (0 Bft) S 180 6,1 C 0,0 km/h (0 Bft)
07.11.2015 08:15 10,1 C 8,5 C 77 % 1026,9 hPa 0,0 mm 0,0 km/h (0 Bft) S 180 6,3 C 0,0 km/h (0 Bft)
07.11.2015 08:19 10,0 C 6,7 C 76 % 1026,9 hPa 0,0 mm 0,0 km/h (0 Bft) S 180 6,0 C 0,0 km/h (0 Bft)
07.11.2015 08:22 10,0 C 6,7 C 76 % 1026,9 hPa 0,0 mm 0,0 km/h (0 Bft) S 180 6,0 C 0,0 km/h (0 Bft)
07.11.2015 08:25 10,0 C 6,7 C 76 % 1026,9 hPa 0,0 mm 0,0 km/h (0 Bft) S 180 6,0 C 0,0 km/h (0 Bft)
07.11.2015 08:30 10,1 C 6,7 C 77 % 1027,4 hPa 0,0 mm 0,0 km/h (0 Bft) S 180 6,3 C 0,0 km/h (0 Bft)
07.11.2015 08:35 10,3 C 7,1 C 76 % 1027,4 hPa 0,0 mm 0,0 km/h (0 Bft) S 180 6,3 C 0,0 km/h (0 Bft)
07.11.2015 08:40 10,3 C 6,9 C 76 % 1027,4 hPa 0,0 mm 0,0 km/h (0 Bft) S 180 6,3 C 0,0 km/h (0 Bft)
07.11.2015 08:45 10,4 C 7,1 C 76 % 1027,4 hPa 0,0 mm 0,0 km/h (0 Bft) S 180 6,4 C 0,0 km/h (0 Bft)
07.11.2015 08:50 10,5 C 7,1 C 77 % 1027,1 hPa 0,0 mm 0,0 km/h (0 Bft) S 180 6,6 C 0,0 km/h (0 Bft)
07.11.2015 08:55 10,6 C 7,3 C 77 % 1027,1 hPa 0,0 mm 0,0 km/h (0 Bft) S 180 6,7 C 0,0 km/h (0 Bft)
07.11.2015 09:00 10,7 C 7,3 C 77 % 1027,1 hPa 0,0 mm 0,0 km/h (0 Bft) S 180 6,8 C 0,0 km/h (0 Bft)
07.11.2015 09:05 10,9 C 7,5 C 77 % 1027,1 hPa 0,0 mm 0,0 km/h (0 Bft) S 180 7,0 C 0,0 km/h (0 Bft)
07.11.2015 09:10 11,6 C 8,0 C 76 % 1027,6 hPa 0,0 mm 0,0 km/h (0 Bft) S 180 7,5 C 0,0 km/h (0 Bft)
07.11.2015 09:15 12,3 C 8,4 C 74 % 1027,6 hPa 0,0 mm 0,0 km/h (0 Bft) S 180 7,8 C 0,0 km/h (0 Bft)
07.11.2015 09:20 12,7 C 8,7 C 73 % 1027,6 hPa 0,0 mm 0,0 km/h (0 Bft) S 180 8,0 C 0,0 km/h (0 Bft)
07.11.2015 09:25 13,1 C 8,8 C 70 % 1027,6 hPa 0,0 mm 0,0 km/h (0 Bft) S 180 7,8 C 0,0 km/h (0 Bft)
07.11.2015 09:30 13,3 C 8,9 C 68 % 1027,3 hPa 0,0 mm 0,0 km/h (0 Bft) S 180 7,5 C 0,0 km/h (0 Bft)
07.11.2015 09:35 13,4 C 9,1 C 68 % 1027,3 hPa 0,0 mm 0,0 km/h (0 Bft) S 180 7,6 C 0,0 km/h (0 Bft)
07.11.2015 09:40 13,6 C 9,2 C 67 % 1027,3 hPa 0,0 mm 0,0 km/h (0 Bft) S 180 7,6 C 0,0 km/h (0 Bft)
07.11.2015 09:45 13,6 C 9,1 C 67 % 1027,3 hPa 0,0 mm 0,0 km/h (0 Bft) S 180 7,6 C 0,0 km/h (0 Bft)
07.11.2015 09:50 13,5 C 9,0 C 67 % 1026,2 hPa 0,0 mm 0,0 km/h (0 Bft) S 180 7,5 C 0,0 km/h (0 Bft)
07.11.2015 09:55 13,4 C 8,9 C 67 % 1026,2 hPa 0,0 mm 0,0 km/h (0 Bft) S 180 7,4 C 0,0 km/h (0 Bft)
07.11.2015 10:00 13,4 C 8,9 C 66 % 1026,2 hPa 0,0 mm 0,0 km/h (0 Bft) S 180 7,2 C 0,0 km/h (0 Bft)
07.11.2015 10:05 13,1 C 8,7 C 67 % 1026,2 hPa 0,0 mm 0,0 km/h (0 Bft) S 180 7,1 C 0,0 km/h (0 Bft)
07.11.2015 10:10 13,1 C 8,7 C 67 % 1027,0 hPa 0,0 mm 0,0 km/h (0 Bft) S 180 7,1 C 0,0 km/h (0 Bft)
07.11.2015 10:15 13,6 C 9,2 C 68 % 1027,0 hPa 0,0 mm 0,0 km/h (0 Bft) S 180 7,8 C 0,0 km/h (0 Bft)
07.11.2015 10:20 13,9 C 9,5 C 68 % 1027,0 hPa 0,0 mm 0,0 km/h (0 Bft) S 180 8,1 C 0,0 km/h (0 Bft)
07.11.2015 10:25 14,5 C 10,0 C 67 % 1027,0 hPa 0,0 mm 0,0 km/h (0 Bft) S 180 8,4 C 0,0 km/h (0 Bft)
07.11.2015 10:30 14,9 C 10,2 C 66 % 1027,2 hPa 0,0 mm 0,0 km/h (0 Bft) S 180 8,6 C 0,0 km/h (0 Bft)
07.11.2015 10:35 15,2 C 10,3 C 65 % 1027,2 hPa 0,0 mm 0,0 km/h (0 Bft) S 180 8,7 C 0,0 km/h (0 Bft)
07.11.2015 10:40 15,6 C 10,7 C 64 % 1027,2 hPa 0,0 mm 0,0 km/h (0 Bft) S 180 8,8 C 0,0 km/h (0 Bft)
07.11.2015 10:45 16,0 C 11,0 C 62 % 1027,2 hPa 0,0 mm 0,0 km/h (0 Bft) S 180 8,7 C 0,0 km/h (0 Bft)
07.11.2015 10:50 16,1 C 11,1 C 61 % 1027,2 hPa 0,0 mm 0,0 km/h (0 Bft) S 180 8,6 C 0,0 km/h (0 Bft)
07.11.2015 10:55 16,3 C 11,1 C 61 % 1027,2 hPa 0,0 mm 0,0 km/h (0 Bft) S 180 8,8 C 0,0 km/h (0 Bft)
07.11.2015 11:00 16,3 C 11,1 C 61 % 1027,2 hPa 0,0 mm 0,0 km/h (0 Bft) S 180 8,8 C 0,0 km/h (0 Bft)
07.11.2015 11:05 16,4 C 11,1 C 60 % 1027,2 hPa 0,0 mm 0,0 km/h (0 Bft) S 180 8,6 C 0,0 km/h (0 Bft)
07.11.2015 11:10 16,6 C 11,3 C 60 % 1027,2 hPa 0,0 mm 0,0 km/h (0 Bft) S 180 8,8 C 0,0 km/h (0 Bft)
07.11.2015 11:15 16,8 C 11,4 C 60 % 1027,2 hPa 0,0 mm 0,0 km/h (0 Bft) S 180 9,0 C 0,0 km/h (0 Bft)
07.11.2015 11:20 16,8 C 11,5 C 60 % 1027,2 hPa 0,0 mm 0,0 km/h (0 Bft) S 180 9,0 C 0,0 km/h (0 Bft)
07.11.2015 11:25 16,8 C 11,2 C 59 % 1027,2 hPa 0,0 mm 0,0 km/h (0 Bft) S 180 8,7 C 0,0 km/h (0 Bft)
07.11.2015 11:31 16,5 C 11,0 C 59 % 1026,9 hPa 0,0 mm 0,0 km/h (0 Bft) S 180 8,5 C 0,0 km/h (0 Bft)
07.11.2015 11:35 16,3 C 10,9 C 58 % 1026,9 hPa 0,0 mm 0,0 km/h (0 Bft) S 180 8,0 C 0,0 km/h (0 Bft)
07.11.2015 11:40 16,2 C 10,8 C 59 % 1026,9 hPa 0,0 mm 0,0 km/h (0 Bft) S 180 8,2 C 0,0 km/h (0 Bft)
07.11.2015 11:46 15,9 C 10,6 C 60 % 1026,9 hPa 0,0 mm 0,0 km/h (0 Bft) S 180 8,1 C 0,0 km/h (0 Bft)
07.11.2015 11:50 15,7 C 10,5 C 60 % 1026,7 hPa 0,0 mm 0,0 km/h (0 Bft) S 180 8,0 C 0,0 km/h (0 Bft)
07.11.2015 11:55 15,5 C 10,3 C 60 % 1026,7 hPa 0,0 mm 0,0 km/h (0 Bft) S 180 7,8 C 0,0 km/h (0 Bft)
07.11.2015 12:00 15,4 C 10,3 C 60 % 1026,7 hPa 0,0 mm 0,0 km/h (0 Bft) S 180 7,7 C 0,0 km/h (0 Bft)
07.11.2015 12:05 15,3 C 10,2 C 61 % 1026,7 hPa 0,0 mm 0,0 km/h (0 Bft) S 180 7,8 C 0,0 km/h (0 Bft)
07.11.2015 12:10 15,4 C 10,3 C 61 % 1026,7 hPa 0,0 mm 0,0 km/h (0 Bft) S 180 7,9 C 0,0 km/h (0 Bft)
07.11.2015 12:15 15,6 C 10,4 C 59 % 1026,7 hPa 0,0 mm 0,0 km/h (0 Bft) S 180 7,6 C 0,0 km/h (0 Bft)
07.11.2015 12:20 15,7 C 10,5 C 59 % 1026,7 hPa 0,0 mm 0,0 km/h (0 Bft) S 180 7,7 C 0,0 km/h (0 Bft)
07.11.2015 12:25 15,8 C 10,5 C 59 % 1026,7 hPa 0,0 mm 0,0 km/h (0 Bft) S 180 7,8 C 0,0 km/h (0 Bft)
07.11.2015 12:30 15,6 C 10,4 C 59 % 1026,5 hPa 0,0 mm 0,0 km/h (0 Bft) S 180 7,6 C 0,0 km/h (0 Bft)
07.11.2015 12:35 15,7 C 10,5 C 59 % 1026,5 hPa 0,0 mm 0,0 km/h (0 Bft) S 180 7,7 C 0,0 km/h (0 Bft)
07.11.2015 12:40 15,9 C 10,6 C 59 % 1026,5 hPa 0,0 mm 0,0 km/h (0 Bft) S 180 7,9 C 0,0 km/h (0 Bft)
07.11.2015 12:45 16,1 C 10,7 C 58 % 1026,5 hPa 0,0 mm 0,0 km/h (0 Bft) S 180 7,8 C 0,0 km/h (0 Bft)
07.11.2015 12:50 15,7 C 10,5 C 59 % 1026,2 hPa 0,0 mm 0,0 km/h (0 Bft) S 180 7,7 C 0,0 km/h (0 Bft)
07.11.2015 12:55 15,8 C 10,5 C 59 % 1026,2 hPa 0,0 mm 0,0 km/h (0 Bft) S 180 7,8 C 0,0 km/h (0 Bft)
07.11.2015 13:00 15,8 C 10,5 C 59 % 1026,2 hPa 0,0 mm 0,0 km/h (0 Bft) S 180 7,8 C 0,0 km/h (0 Bft)
07.11.2015 13:05 15,9 C 10,6 C 59 % 1026,2 hPa 0,0 mm 0,0 km/h (0 Bft) S 180 7,9 C 0,0 km/h (0 Bft)
07.11.2015 13:10 16,0 C 10,7 C 59 % 1026,2 hPa 0,0 mm 0,0 km/h (0 Bft) S 180 8,0 C 0,0 km/h (0 Bft)
07.11.2015 13:15 16,2 C 10,8 C 59 % 1026,2 hPa 0,0 mm 0,0 km/h (0 Bft) S 180 8,2 C 0,0 km/h (0 Bft)
07.11.2015 13:20 17,2 C 11,5 C 59 % 1026,2 hPa 0,0 mm 0,0 km/h (0 Bft) S 180 9,1 C 0,0 km/h (0 Bft)
07.11.2015 13:25 18,0 C 12,0 C 58 % 1026,2 hPa 0,0 mm 0,0 km/h (0 Bft) S 180 9,6 C 0,0 km/h (0 Bft)
07.11.2015 13:30 18,2 C 12,1 C 57 % 1025,9 hPa 0,0 mm 0,0 km/h (0 Bft) S 180 9,5 C 0,0 km/h (0 Bft)
07.11.2015 13:35 17,9 C 11,9 C 57 % 1025,9 hPa 0,0 mm 0,0 km/h (0 Bft) S 180 9,3 C 0,0 km/h (0 Bft)
07.11.2015 13:40 18,2 C 12,1 C 57 % 1025,9 hPa 0,0 mm 0,0 km/h (0 Bft) S 180 9,5 C 0,0 km/h (0 Bft)
07.11.2015 13:45 19,0 C 12,7 C 57 % 1025,9 hPa 0,0 mm 0,0 km/h (0 Bft) S 180 10,3 C 0,0 km/h (0 Bft)
07.11.2015 13:50 19,2 C 12,8 C 57 % 1026,3 hPa 0,0 mm 0,0 km/h (0 Bft) S 180 10,5 C 0,0 km/h (0 Bft)
07.11.2015 13:55 18,9 C 12,6 C 56 % 1026,3 hPa 0,0 mm 0,0 km/h (0 Bft) S 180 9,9 C 0,0 km/h (0 Bft)
07.11.2015 14:00 18,7 C 12,5 C 56 % 1026,3 hPa 0,0 mm 0,0 km/h (0 Bft) S 180 9,7 C 0,0 km/h (0 Bft)
07.11.2015 14:05 18,3 C 12,2 C 57 % 1026,3 hPa 0,0 mm 0,0 km/h (0 Bft) S 180 9,6 C 0,0 km/h (0 Bft)
07.11.2015 14:10 18,1 C 12,1 C 56 % 1026,8 hPa 0,0 mm 0,0 km/h (0 Bft) S 180 9,2 C 0,0 km/h (0 Bft)
07.11.2015 14:15 18,4 C 12,3 C 56 % 1026,8 hPa 0,0 mm 0,0 km/h (0 Bft) S 180 9,5 C 0,0 km/h (0 Bft)
07.11.2015 14:20 18,5 C 12,3 C 56 % 1026,8 hPa 0,0 mm 0,0 km/h (0 Bft) S 180 9,6 C 0,0 km/h (0 Bft)
07.11.2015 14:23 18,5 C 12,3 C 56 % 1026,8 hPa 0,0 mm 0,0 km/h (0 Bft) S 180 9,6 C 0,0 km/h (0 Bft)
07.11.2015 14:25 19,2 C 12,8 C 56 % 1026,8 hPa 0,0 mm 0,0 km/h (0 Bft) S 180 10,2 C 0,0 km/h (0 Bft)
07.11.2015 14:30 19,1 C 12,7 C 55 % 1026,6 hPa 0,0 mm 0,0 km/h (0 Bft) S 180 9,8 C 0,0 km/h (0 Bft)
07.11.2015 14:35 18,9 C 12,6 C 56 % 1026,6 hPa 0,0 mm 0,0 km/h (0 Bft) S 180 9,9 C 0,0 km/h (0 Bft)
07.11.2015 14:40 18,7 C 12,5 C 55 % 1026,6 hPa 0,0 mm 0,0 km/h (0 Bft) S 180 9,5 C 0,0 km/h (0 Bft)
07.11.2015 14:45 19,0 C 12,7 C 55 % 1026,6 hPa 0,0 mm 0,0 km/h (0 Bft) S 180 9,8 C 0,0 km/h (0 Bft)
07.11.2015 14:50 19,3 C 12,9 C 55 % 1026,7 hPa 0,0 mm 0,0 km/h (0 Bft) S 180 10,0 C 0,0 km/h (0 Bft)
07.11.2015 14:55 18,6 C 12,4 C 56 % 1026,7 hPa 0,0 mm 0,0 km/h (0 Bft) S 180 9,6 C 0,0 km/h (0 Bft)
07.11.2015 15:00 18,6 C 12,4 C 55 % 1026,7 hPa 0,0 mm 0,0 km/h (0 Bft) S 180 9,4 C 0,0 km/h (0 Bft)
07.11.2015 15:05 18,3 C 12,2 C 56 % 1026,7 hPa 0,0 mm 0,0 km/h (0 Bft) S 180 9,4 C 0,0 km/h (0 Bft)
07.11.2015 15:10 18,0 C 12,0 C 55 % 1026,8 hPa 0,0 mm 0,0 km/h (0 Bft) S 180 8,8 C 0,0 km/h (0 Bft)
07.11.2015 15:15 17,2 C 11,5 C 56 % 1026,8 hPa 0,0 mm 0,0 km/h (0 Bft) S 180 8,3 C 0,0 km/h (0 Bft)
07.11.2015 15:20 16,8 C 11,2 C 56 % 1026,8 hPa 0,0 mm 0,0 km/h (0 Bft) S 180 8,0 C 0,0 km/h (0 Bft)
07.11.2015 15:25 16,4 C 10,9 C 57 % 1026,8 hPa 0,0 mm 0,0 km/h (0 Bft) S 180 7,9 C 0,0 km/h (0 Bft)
07.11.2015 15:30 16,2 C 10,8 C 57 % 1026,8 hPa 0,0 mm 0,0 km/h (0 Bft) S 180 7,7 C 0,0 km/h (0 Bft)
07.11.2015 15:35 16,1 C 10,7 C 57 % 1026,8 hPa 0,0 mm 0,0 km/h (0 Bft) S 180 7,6 C 0,0 km/h (0 Bft)
07.11.2015 15:40 16,1 C 10,7 C 57 % 1026,8 hPa 0,0 mm 0,0 km/h (0 Bft) S 180 7,6 C 0,0 km/h (0 Bft)
07.11.2015 15:45 16,0 C 10,7 C 58 % 1026,8 hPa 0,0 mm 0,0 km/h (0 Bft) S 180 7,7 C 0,0 km/h (0 Bft)
07.11.2015 15:50 15,8 C 10,5 C 58 % 1026,8 hPa 0,0 mm 0,0 km/h (0 Bft) S 180 7,6 C 0,0 km/h (0 Bft)
07.11.2015 15:55 15,6 C 10,4 C 59 % 1026,8 hPa 0,0 mm 0,0 km/h (0 Bft) S 180 7,6 C 0,0 km/h (0 Bft)
07.11.2015 16:00 15,5 C 10,3 C 59 % 1026,8 hPa 0,0 mm 0,0 km/h (0 Bft) S 180 7,5 C 0,0 km/h (0 Bft)
07.11.2015 16:05 15,3 C 10,2 C 60 % 1026,8 hPa 0,0 mm 0,0 km/h (0 Bft) S 180 7,6 C 0,0 km/h (0 Bft)
07.11.2015 16:10 15,3 C 10,2 C 60 % 1026,9 hPa 0,0 mm 0,0 km/h (0 Bft) S 180 7,6 C 0,0 km/h (0 Bft)
07.11.2015 16:15 15,2 C 10,1 C 60 % 1026,9 hPa 0,0 mm 0,0 km/h (0 Bft) S 180 7,5 C 0,0 km/h (0 Bft)
07.11.2015 16:20 15,1 C 10,1 C 60 % 1026,9 hPa 0,0 mm 0,0 km/h (0 Bft) S 180 7,4 C 0,0 km/h (0 Bft)
07.11.2015 16:25 14,8 C 9,9 C 61 % 1026,9 hPa 0,0 mm 0,0 km/h (0 Bft) S 180 7,4 C 0,0 km/h (0 Bft)
07.11.2015 16:30 14,4 C 9,6 C 61 % 1026,8 hPa 0,0 mm 0,0 km/h (0 Bft) S 180 7,0 C 0,0 km/h (0 Bft)
07.11.2015 16:35 13,4 C 8,9 C 64 % 1026,8 hPa 0,0 mm 0,0 km/h (0 Bft) S 180 6,7 C 0,0 km/h (0 Bft)
07.11.2015 16:40 13,1 C 8,9 C 67 % 1026,8 hPa 0,0 mm 0,0 km/h (0 Bft) S 180 7,1 C 0,0 km/h (0 Bft)
07.11.2015 16:45 13,4 C 9,2 C 68 % 1026,8 hPa 0,0 mm 0,0 km/h (0 Bft) S 180 7,6 C 0,0 km/h (0 Bft)
07.11.2015 16:50 13,4 C 9,3 C 68 % 1026,9 hPa 0,0 mm 0,0 km/h (0 Bft) S 180 7,6 C 0,0 km/h (0 Bft)
07.11.2015 16:55 13,4 C 9,2 C 67 % 1026,9 hPa 0,0 mm 0,0 km/h (0 Bft) S 180 7,4 C 0,0 km/h (0 Bft)
07.11.2015 17:00 12,7 C 8,7 C 69 % 1026,9 hPa 0,0 mm 0,0 km/h (0 Bft) S 180 7,2 C 0,0 km/h (0 Bft)
07.11.2015 17:05 12,5 C 8,7 C 71 % 1026,9 hPa 0,0 mm 0,0 km/h (0 Bft) S 180 7,4 C 0,0 km/h (0 Bft)
07.11.2015 17:10 12,3 C 8,7 C 71 % 1026,9 hPa 0,0 mm 0,0 km/h (0 Bft) S 180 7,2 C 0,0 km/h (0 Bft)
07.11.2015 17:15 12,4 C 8,5 C 72 % 1026,9 hPa 0,0 mm 0,0 km/h (0 Bft) S 180 7,5 C 0,0 km/h (0 Bft)
07.11.2015 17:20 12,1 C 8,4 C 72 % 1026,9 hPa 0,0 mm 0,0 km/h (0 Bft) S 180 7,2 C 0,0 km/h (0 Bft)
07.11.2015 17:25 11,8 C 8,2 C 72 % 1026,9 hPa 0,0 mm 0,0 km/h (0 Bft) S 180 6,9 C 0,0 km/h (0 Bft)
07.11.2015 17:30 11,4 C 8,0 C 73 % 1026,9 hPa 0,0 mm 0,0 km/h (0 Bft) S 180 6,7 C 0,0 km/h (0 Bft)
07.11.2015 17:35 11,7 C 8,0 C 74 % 1026,9 hPa 0,0 mm 0,0 km/h (0 Bft) S 180 7,2 C 0,0 km/h (0 Bft)
07.11.2015 17:40 11,8 C 8,0 C 74 % 1026,9 hPa 0,0 mm 0,0 km/h (0 Bft) S 180 7,3 C 0,0 km/h (0 Bft)
07.11.2015 17:45 11,5 C 7,8 C 74 % 1026,9 hPa 0,0 mm 0,0 km/h (0 Bft) S 180 7,0 C 0,0 km/h (0 Bft)
07.11.2015 17:50 11,5 C 7,9 C 74 % 1027,1 hPa 0,0 mm 0,0 km/h (0 Bft) S 180 7,0 C 0,0 km/h (0 Bft)
07.11.2015 17:55 11,6 C 7,9 C 74 % 1027,1 hPa 0,0 mm 0,0 km/h (0 Bft) S 180 7,1 C 0,0 km/h (0 Bft)
07.11.2015 18:00 11,1 C 7,4 C 74 % 1027,1 hPa 0,0 mm 0,0 km/h (0 Bft) S 180 6,6 C 0,0 km/h (0 Bft)
07.11.2015 18:05 10,5 C 7,0 C 74 % 1027,1 hPa 0,0 mm 0,0 km/h (0 Bft) S 180 6,1 C 0,0 km/h (0 Bft)
07.11.2015 18:10 10,4 C 6,9 C 74 % 1027,2 hPa 0,0 mm 0,0 km/h (0 Bft) S 180 6,0 C 0,0 km/h (0 Bft)
07.11.2015 18:15 10,9 C 7,4 C 76 % 1027,2 hPa 0,0 mm 0,0 km/h (0 Bft) S 180 6,8 C 0,0 km/h (0 Bft)
07.11.2015 18:20 11,0 C 7,3 C 77 % 1027,2 hPa 0,0 mm 0,0 km/h (0 Bft) S 180 7,1 C 0,0 km/h (0 Bft)
07.11.2015 18:25 10,5 C 7,0 C 76 % 1027,2 hPa 0,0 mm 0,0 km/h (0 Bft) S 180 6,5 C 0,0 km/h (0 Bft)
07.11.2015 18:30 10,2 C 6,8 C 76 % 1026,9 hPa 0,0 mm 0,0 km/h (0 Bft) S 180 6,2 C 0,0 km/h (0 Bft)
07.11.2015 18:35 9,8 C 6,5 C 77 % 1026,9 hPa 0,0 mm 0,0 km/h (0 Bft) S 180 6,0 C 0,0 km/h (0 Bft)
07.11.2015 18:40 9,4 C 6,3 C 77 % 1026,9 hPa 0,0 mm 0,0 km/h (0 Bft) S 180 5,6 C 0,0 km/h (0 Bft)
07.11.2015 18:45 9,4 C 6,3 C 78 % 1026,9 hPa 0,0 mm 0,0 km/h (0 Bft) S 180 5,8 C 0,0 km/h (0 Bft)
07.11.2015 18:50 9,5 C 6,3 C 78 % 1027,1 hPa 0,0 mm 0,0 km/h (0 Bft) S 180 5,9 C 0,0 km/h (0 Bft)
07.11.2015 18:55 9,3 C 6,2 C 79 % 1027,1 hPa 0,0 mm 0,0 km/h (0 Bft) S 180 5,8 C 0,0 km/h (0 Bft)
07.11.2015 19:00 9,0 C 6,0 C 78 % 1027,1 hPa 0,0 mm 0,0 km/h (0 Bft) S 180 5,4 C 0,0 km/h (0 Bft)
07.11.2015 19:05 9,0 C 6,0 C 79 % 1027,1 hPa 0,0 mm 0,0 km/h (0 Bft) S 180 5,6 C 0,0 km/h (0 Bft)
07.11.2015 19:10 9,2 C 6,1 C 80 % 1027,0 hPa 0,0 mm 0,0 km/h (0 Bft) S 180 5,9 C 0,0 km/h (0 Bft)
07.11.2015 19:15 9,0 C 6,0 C 80 % 1027,0 hPa 0,0 mm 0,0 km/h (0 Bft) S 180 5,7 C 0,0 km/h (0 Bft)
07.11.2015 19:20 8,7 C 5,8 C 80 % 1027,0 hPa 0,0 mm 0,0 km/h (0 Bft) S 180 5,4 C 0,0 km/h (0 Bft)
07.11.2015 19:25 8,8 C 5,9 C 81 % 1027,0 hPa 0,0 mm 0,0 km/h (0 Bft) S 180 5,7 C 0,0 km/h (0 Bft)
07.11.2015 19:30 8,6 C 5,7 C 81 % 1027,1 hPa 0,0 mm 0,0 km/h (0 Bft) S 180 5,5 C 0,0 km/h (0 Bft)
07.11.2015 19:35 8,3 C 5,5 C 81 % 1027,1 hPa 0,0 mm 0,0 km/h (0 Bft) S 180 5,2 C 0,0 km/h (0 Bft)
07.11.2015 19:40 8,3 C 5,5 C 81 % 1027,1 hPa 0,0 mm 0,0 km/h (0 Bft) S 180 5,2 C 0,0 km/h (0 Bft)
07.11.2015 19:45 8,2 C 5,5 C 81 % 1027,1 hPa 0,0 mm 0,0 km/h (0 Bft) S 180 5,1 C 0,0 km/h (0 Bft)
07.11.2015 19:50 8,8 C 5,9 C 84 % 1027,2 hPa 0,0 mm 0,0 km/h (0 Bft) S 180 6,2 C 0,0 km/h (0 Bft)
07.11.2015 19:55 9,3 C 6,5 C 80 % 1027,2 hPa 0,0 mm 0,0 km/h (0 Bft) S 180 6,0 C 0,0 km/h (0 Bft)
07.11.2015 20:00 9,3 C 6,5 C 80 % 1027,2 hPa 0,0 mm 0,0 km/h (0 Bft) S 180 6,0 C 0,0 km/h (0 Bft)
07.11.2015 20:05 9,9 C 6,7 C 81 % 1027,2 hPa 0,0 mm 0,0 km/h (0 Bft) S 180 6,8 C 0,0 km/h (0 Bft)
07.11.2015 20:10 10,0 C 6,7 C 84 % 1027,4 hPa 0,0 mm 0,0 km/h (0 Bft) S 180 7,4 C 0,0 km/h (0 Bft)
07.11.2015 20:15 10,0 C 6,7 C 84 % 1027,4 hPa 0,0 mm 0,0 km/h (0 Bft) S 180 7,4 C 0,0 km/h (0 Bft)
07.11.2015 20:20 10,0 C 6,7 C 83 % 1027,4 hPa 0,0 mm 0,0 km/h (0 Bft) S 180 7,2 C 0,0 km/h (0 Bft)
07.11.2015 20:24 9,9 C 6,6 C 83 % 1027,4 hPa 0,0 mm 0,0 km/h (0 Bft) S 180 7,2 C 0,0 km/h (0 Bft)
07.11.2015 20:25 9,9 C 6,6 C 83 % 1027,4 hPa 0,0 mm 0,0 km/h (0 Bft) S 180 7,2 C 0,0 km/h (0 Bft)
07.11.2015 20:30 9,8 C 6,5 C 83 % 1027,2 hPa 0,0 mm 0,0 km/h (0 Bft) S 180 7,1 C 0,0 km/h (0 Bft)
07.11.2015 20:35 10,0 C 6,7 C 83 % 1027,2 hPa 0,0 mm 0,0 km/h (0 Bft) S 180 7,2 C 0,0 km/h (0 Bft)
07.11.2015 20:40 9,8 C 6,5 C 83 % 1027,2 hPa 0,0 mm 0,0 km/h (0 Bft) S 180 7,1 C 0,0 km/h (0 Bft)
07.11.2015 20:45 9,9 C 6,6 C 83 % 1027,2 hPa 0,0 mm 0,0 km/h (0 Bft) S 180 7,2 C 0,0 km/h (0 Bft)
07.11.2015 20:50 9,9 C 6,6 C 83 % 1027,4 hPa 0,0 mm 0,0 km/h (0 Bft) S 180 7,2 C 0,0 km/h (0 Bft)
07.11.2015 20:55 10,0 C 6,7 C 83 % 1027,4 hPa 0,0 mm 0,0 km/h (0 Bft) S 180 7,2 C 0,0 km/h (0 Bft)
07.11.2015 21:00 9,6 C 6,4 C 82 % 1027,4 hPa 0,0 mm 0,0 km/h (0 Bft) S 180 6,7 C 0,0 km/h (0 Bft)
07.11.2015 21:05 9,6 C 6,4 C 82 % 1027,4 hPa 0,0 mm 0,0 km/h (0 Bft) S 180 6,7 C 0,0 km/h (0 Bft)
07.11.2015 21:10 9,7 C 6,5 C 83 % 1027,3 hPa 0,0 mm 0,0 km/h (0 Bft) S 180 7,0 C 0,0 km/h (0 Bft)
07.11.2015 21:15 9,1 C 6,1 C 82 % 1027,3 hPa 0,0 mm 0,0 km/h (0 Bft) S 180 6,2 C 0,0 km/h (0 Bft)
07.11.2015 21:20 9,0 C 6,0 C 82 % 1027,3 hPa 0,0 mm 0,0 km/h (0 Bft) S 180 6,1 C 0,0 km/h (0 Bft)
07.11.2015 21:25 8,8 C 5,9 C 82 % 1027,3 hPa 0,0 mm 0,0 km/h (0 Bft) S 180 5,9 C 0,0 km/h (0 Bft)
07.11.2015 21:30 9,1 C 6,1 C 83 % 1027,4 hPa 0,0 mm 0,0 km/h (0 Bft) S 180 6,4 C 0,0 km/h (0 Bft)
07.11.2015 21:35 9,6 C 6,4 C 83 % 1027,4 hPa 0,0 mm 0,0 km/h (0 Bft) S 180 6,9 C 0,0 km/h (0 Bft)
07.11.2015 21:40 9,2 C 6,1 C 83 % 1027,4 hPa 0,0 mm 0,0 km/h (0 Bft) S 180 6,5 C 0,0 km/h (0 Bft)
07.11.2015 21:45 9,2 C 6,1 C 83 % 1027,4 hPa 0,0 mm 0,0 km/h (0 Bft) S 180 6,5 C 0,0 km/h (0 Bft)
07.11.2015 21:50 8,9 C 5,9 C 83 % 1027,6 hPa 0,0 mm 0,0 km/h (0 Bft) S 180 6,2 C 0,0 km/h (0 Bft)
07.11.2015 21:55 8,7 C 5,8 C 83 % 1027,6 hPa 0,0 mm 0,0 km/h (0 Bft) S 180 6,0 C 0,0 km/h (0 Bft)
07.11.2015 22:00 8,8 C 5,9 C 83 % 1027,6 hPa 0,0 mm 0,0 km/h (0 Bft) S 180 6,1 C 0,0 km/h (0 Bft)
07.11.2015 22:05 9,1 C 6,1 C 84 % 1027,6 hPa 0,0 mm 0,0 km/h (0 Bft) S 180 6,5 C 0,0 km/h (0 Bft)
07.11.2015 22:10 8,8 C 5,9 C 83 % 1027,6 hPa 0,0 mm 0,0 km/h (0 Bft) S 180 6,1 C 0,0 km/h (0 Bft)
07.11.2015 22:15 9,2 C 6,1 C 84 % 1027,6 hPa 0,0 mm 0,0 km/h (0 Bft) S 180 6,6 C 0,0 km/h (0 Bft)
07.11.2015 22:20 8,9 C 5,9 C 84 % 1027,6 hPa 0,0 mm 0,0 km/h (0 Bft) S 180 6,3 C 0,0 km/h (0 Bft)
07.11.2015 22:25 8,8 C 5,9 C 84 % 1027,6 hPa 0,0 mm 0,0 km/h (0 Bft) S 180 6,2 C 0,0 km/h (0 Bft)
07.11.2015 22:30 8,5 C 5,7 C 83 % 1027,6 hPa 0,0 mm 0,0 km/h (0 Bft) S 180 5,8 C 0,0 km/h (0 Bft)
07.11.2015 22:35 8,5 C 5,7 C 84 % 1027,6 hPa 0,0 mm 0,0 km/h (0 Bft) S 180 6,0 C 0,0 km/h (0 Bft)
07.11.2015 22:40 8,5 C 5,7 C 84 % 1027,6 hPa 0,0 mm 0,0 km/h (0 Bft) S 180 6,0 C 0,0 km/h (0 Bft)
07.11.2015 22:45 8,2 C 5,5 C 84 % 1027,6 hPa 0,0 mm 0,0 km/h (0 Bft) S 180 5,7 C 0,0 km/h (0 Bft)
07.11.2015 22:50 8,2 C 5,5 C 84 % 1027,8 hPa 0,0 mm 0,0 km/h (0 Bft) S 180 5,7 C 0,0 km/h (0 Bft)
07.11.2015 22:55 8,1 C 5,4 C 84 % 1027,8 hPa 0,0 mm 0,0 km/h (0 Bft) S 180 5,6 C 0,0 km/h (0 Bft)
07.11.2015 23:00 7,9 C 5,3 C 84 % 1027,8 hPa 0,0 mm 0,0 km/h (0 Bft) S 180 5,4 C 0,0 km/h (0 Bft)
07.11.2015 23:05 7,9 C 5,3 C 84 % 1027,8 hPa 0,0 mm 0,0 km/h (0 Bft) S 180 5,4 C 0,0 km/h (0 Bft)
07.11.2015 23:10 7,6 C 5,1 C 84 % 1027,6 hPa 0,0 mm 0,0 km/h (0 Bft) S 180 5,1 C 0,0 km/h (0 Bft)
07.11.2015 23:15 7,6 C 5,1 C 84 % 1027,6 hPa 0,0 mm 0,0 km/h (0 Bft) S 180 5,1 C 0,0 km/h (0 Bft)
07.11.2015 23:20 7,6 C 5,1 C 85 % 1027,6 hPa 0,0 mm 0,0 km/h (0 Bft) S 180 5,2 C 0,0 km/h (0 Bft)
07.11.2015 23:25 7,5 C 5,0 C 85 % 1027,6 hPa 0,0 mm 0,0 km/h (0 Bft) S 180 5,1 C 0,0 km/h (0 Bft)
07.11.2015 23:30 7,7 C 5,1 C 85 % 1027,1 hPa 0,0 mm 0,0 km/h (0 Bft) S 180 5,3 C 0,0 km/h (0 Bft)
07.11.2015 23:35 7,8 C 5,2 C 85 % 1027,1 hPa 0,0 mm 0,0 km/h (0 Bft) S 180 5,4 C 0,0 km/h (0 Bft)
07.11.2015 23:40 7,8 C 5,2 C 86 % 1027,1 hPa 0,0 mm 0,0 km/h (0 Bft) S 180 5,6 C 0,0 km/h (0 Bft)
07.11.2015 23:45 7,6 C 5,1 C 85 % 1027,1 hPa 0,0 mm 0,0 km/h (0 Bft) S 180 5,2 C 0,0 km/h (0 Bft)
07.11.2015 23:50 7,6 C 5,1 C 86 % 1027,2 hPa 0,0 mm 0,0 km/h (0 Bft) S 180 5,4 C 0,0 km/h (0 Bft)
07.11.2015 23:55 7,5 C 5,0 C 86 % 1027,2 hPa 0,0 mm 0,0 km/h (0 Bft) S 180 5,3 C 0,0 km/h (0 Bft)
_ Min-Zeit 01:30 02:05 15:10 05:05 - 23:55 - - 01:05 23:55
Minimum _ 4,9 C 4,9 C 55 % 1025,2 hPa - 0,0 km/h (0 Bft) - - 2,6 C 0,0 km/h (0 Bft)
_ Max-Zeit 14:50 14:50 02:45 23:05 23:55 00:20 - - 13:50 00:20
Maximum _ 19,3 C 12,9 C 88 % 1027,8 hPa 0,0 mm 1,0 km/h
N-NW (0 Bft)
- - 10,5 C 6,0 km/h
N-NW (2 Bft)
Durchschnitt _ 10,9 C 8,0 C 74 % 1026,6 hPa #0,0 mm 0,0 km/h (0 Bft) N - 6,3 C 0,1 km/h (0 Bft)